KINEIS-5C

Last updated on Sun Dec 14 2025 00:02:44 GMT+0000 (Coordinated Universal Time)

1 62081U 24219A 25346.91348439 -.00000111 00000+0 -97545-5 0 9995 2 62081 97.9873 144.8904 0000683 207.5479 152.5693 14.72277460 56342
UTC large
Height (km)
Speed (km/s)
/
Latitude / Longitude
Inclination (degrees)
Orbital Period (minutes)
Azimuth
Elevation
Range (km)
Doppler Factor

Next 0 passes for location: London (51.5072 / 0.1276)

Sorry there are no passes over London.